Weather History for KLAA - March, 2012

Change the Weather History Date:

Wednesday, March 21, 2012

  Actual Average Record
Temperature  
Mean Temperature 49 °F 44 °F  
Max Temperature 62 °F 61 °F 86 °F (2011)
Min Temperature 36 °F 28 °F 5 °F (1989)
Degree Days  
Heating Degree Days 16 21  
Month to date heating degree days 369 507  
Since 1 July heating degree days 4547 4818  
Cooling Degree Days 0 0  
Month to date cooling degree days 0 0  
Year to date cooling degree days 0 0  
Moisture  
Dew Point 26 °F    
Average Humidity 47    
Maximum Humidity 66    
Minimum Humidity 27    
Precipitation  
Precipitation T in 0.03 in 1.07 in (1926)
Month to date precipitation 0.14 0.59  
Year to date precipitation 0.34 1.26  
Snow  
Snow 0.00 in - - ()
Month to date snowfall 0.0  
Snow Depth 0.00 in    
Sea Level Pressure  
Sea Level Pressure 29.83 in    
Wind  
Wind Speed 16 mph (North)    
Max Wind Speed 35 mph    
Max Gust Speed 45 mph    
Visibility 10 miles    
Events Rain    
T = Trace of Precipitation, MM = Missing Value Source: NWS Daily Summary

Daily Weather History Graph

Daily Weather History Graph

Search for Another Location

Airport or City:

Trip Planner

Search our weather history database for the weather conditions in past years. The results will help you decide how hot, cold, wet, or windy it might be!

Date:

Astronomy

Mar. 21, 2012 Rise Set
Actual Time 6:51 AM MDT 7:04 PM MDT
Civil Twilight 6:25 AM MDT 7:30 PM MDT
Nautical Twilight 5:54 AM MDT 8:01 PM MDT
Astronomical Twilight 5:23 AM MDT 8:32 PM MDT
Moon 6:03 AM MDT (3/21) 6:32 PM MDT (3/21)
Length of Visible Light 13h 04m
Length of Day
12h 12m
Waning Crescent, 1% of the Moon is Illuminated
Mar 21
Waning Crescent
Mar 22
New
Mar 30
First Quarter
Apr 6
Full
Apr 13
Last Quarter

Hourly Weather History & Observations

Time (MDT) Temp. Windchill Dew Point Humidity Pressure Visibility Wind Dir Wind Speed Gust Speed Precip Events Conditions
12:53 AM 37.0 °F 30.4 °F 21.9 °F 54% 29.90 in 10.0 mi NNW 9.2 mph - N/A   Mostly Cloudy
1:53 AM 37.0 °F 31.0 °F 21.0 °F 52% 29.89 in 10.0 mi North 8.1 mph - N/A   Overcast
2:53 AM 37.9 °F 31.5 °F 19.9 °F 48% 29.86 in 10.0 mi NNW 9.2 mph - N/A   Overcast
3:53 AM 37.9 °F 29.2 °F 19.0 °F 47% 29.85 in 10.0 mi NNW 15.0 mph - N/A   Overcast
4:53 AM 37.9 °F 30.9 °F 19.0 °F 47% 29.85 in 10.0 mi NNW 10.4 mph - N/A   Overcast
5:53 AM 39.9 °F 32.9 °F 19.0 °F 43% 29.85 in 10.0 mi NNW 11.5 mph - N/A   Overcast
6:53 AM 39.0 °F 34.8 °F 19.0 °F 45% 29.86 in 10.0 mi NNW 5.8 mph - N/A   Overcast
7:53 AM 39.9 °F 32.9 °F 19.9 °F 45% 29.89 in 10.0 mi North 11.5 mph - N/A   Overcast
8:53 AM 45.0 °F 38.5 °F 19.9 °F 37% 29.89 in 10.0 mi North 13.8 mph - N/A   Overcast
9:53 AM 48.0 °F - 24.1 °F 39% 29.89 in 10.0 mi NNE 13.8 mph - N/A   Overcast
10:53 AM 50.0 °F - 21.9 °F 33% 29.89 in 10.0 mi NNE 23.0 mph 29.9 mph N/A   Overcast
11:53 AM 53.1 °F - 21.0 °F 29% 29.86 in 10.0 mi NNE 29.9 mph 39.1 mph N/A   Overcast
12:53 PM 55.0 °F - 23.0 °F 29% 29.84 in 10.0 mi NNE 24.2 mph 35.7 mph N/A   Overcast
1:53 PM 60.1 °F - 26.1 °F 27% 29.81 in 10.0 mi NNE 24.2 mph 29.9 mph N/A   Overcast
2:53 PM 52.0 °F - 35.1 °F 53% 29.82 in 8.0 mi NNE 20.7 mph 29.9 mph 0.00 in Rain Light Rain
3:53 PM 59.0 °F - 30.0 °F 33% 29.80 in 10.0 mi NNE 25.3 mph 34.5 mph N/A   Mostly Cloudy
4:53 PM 61.0 °F - 32.0 °F 34% 29.78 in 10.0 mi NNE 23.0 mph 31.1 mph N/A   Mostly Cloudy
5:53 PM 57.9 °F - 36.0 °F 44% 29.78 in 10.0 mi NNE 24.2 mph - N/A   Scattered Clouds
6:53 PM 55.0 °F - 37.0 °F 51% 29.81 in 10.0 mi NE 17.3 mph - N/A   Clear
7:53 PM 53.1 °F - 39.9 °F 61% 29.80 in 10.0 mi NE 12.7 mph - N/A   Mostly Cloudy
8:53 PM 52.0 °F - 39.0 °F 61% 29.79 in 10.0 mi North 6.9 mph - N/A   Overcast
9:53 PM 48.0 °F - 37.0 °F 66% 29.79 in 10.0 mi WNW 6.9 mph - N/A   Overcast
10:53 PM 50.0 °F - 25.0 °F 38% 29.76 in 10.0 mi NW 15.0 mph - N/A   Overcast
11:53 PM 50.0 °F - 25.0 °F 38% 29.72 in 10.0 mi NW 12.7 mph - N/A   Overcast